Location: Tierz
(42.1336°N, 0.3549°W)
Time: 23:58:39
(UTC+00:00)

Cosmos 1825 - Pass Details

Date: 29 October 2020
Orbit: 501 x 508 km, 82.5° (Epoch: 05 December)

Event Time Altitude Azimuth Distance (km) Brightness Sun altitude
Rises 18:46:12 0° 352° (N) 2,623 5.9 -20.5°
Reaches altitude 10° 18:48:21 10° 353° (N) 1,731 4.9 -20.9°
Maximum altitude 18:52:09 85° 81° (E) 514 2.0 -21.6°
Enters shadow 18:52:15 83° 125° (SE) 516 2.0 -21.6°
